Retour au catalogue

OPS 4682 DEB

ActifPO
NORAD 38459·DEBRIS·🇺🇸 United States

Lancé Apr 3, 1965 depuis Vandenberg Space Force Base

Loading…

Prochains Passages (prochaines 24 heures)

TLE

FraisSource: Space-Track

Époque: Sep 13, 2026, 13:05 UTC

1 38459U 65027FQ  26256.54532278 -.00000232  00000-0 -88004-3 0  9998
2 38459  90.2458   8.0482 0029699  59.8310 300.5744 12.92922445559903

Suivez OPS 4682 DEB en temps réel avec AllMySat

Download on the App Store